Blair, NE

4:41 AM CDT on August 22, 2017 (GMT -0500)
Blair Municipal

Weather History for KBTA - December, 2012

Change the Weather History Date:

Wednesday, December 12, 2012

  Actual Average (KOMA) Record (KOMA)
Temperature  
Mean Temperature 40 °F -  
Max Temperature 53 °F 37 °F 65 °F (1921)
Min Temperature 28 °F 16 °F -12 °F (1932)
Degree Days  
Heating Degree Days 24    
Moisture  
Dew Point 16 °F    
Average Humidity 41    
Maximum Humidity 63    
Minimum Humidity 22    
Precipitation  
Precipitation 0.00 in - - ()
Sea Level Pressure  
Sea Level Pressure 29.94 in    
Wind  
Wind Speed 16 mph (South)    
Max Wind Speed 30 mph    
Max Gust Speed 38 mph    
Visibility 10 miles    
Events      
Averages and records for this station are not official NWS values.
T = Trace of Precipitation, MM = Missing Value Source: NWS Daily Summary

Daily Weather History Graph

Daily Weather History Graph

Search for Another Location

Airport or City:

Trip Planner

Search our weather history database for the weather conditions in past years. The results will help you decide how hot, cold, wet, or windy it might be!

Date:

Astronomy

Dec. 12, 2012 Rise Set
Actual Time 7:41 AM CST 4:55 PM CST
Civil Twilight 7:10 AM CST 5:26 PM CST
Nautical Twilight 6:35 AM CST 6:01 PM CST
Astronomical Twilight 6:01 AM CST 6:34 PM CST
Moon 6:47 AM CST (12/12) 4:33 PM CST (12/12)
Length of Visible Light 10h 16m
Length of Day
9h 13m
Waning Crescent, 1% of the Moon is Illuminated
Dec 12
Waning Crescent
Dec 13
New
Dec 19
First Quarter
Dec 28
Full
Jan 4
Last Quarter

Hourly Weather History & Observations

Time (CST) Temp. Windchill Dew Point Humidity Pressure Visibility Wind Dir Wind Speed Gust Speed Precip Events Conditions
12:15 AM 28.6 °F 19.3 °F 17.4 °F 63% 29.97 in 10.0 mi South 10.4 mph - N/A   Clear
12:35 AM 28.9 °F 19.2 °F 17.6 °F 63% 29.97 in 10.0 mi South 11.5 mph - N/A   Clear
12:55 AM 29.8 °F 19.8 °F 17.6 °F 60% 29.96 in 10.0 mi South 12.7 mph - N/A   Clear
1:15 AM 30.0 °F 20.5 °F 17.8 °F 60% 29.96 in 10.0 mi South 11.5 mph - N/A   Clear
1:35 AM 30.0 °F 20.5 °F 18.0 °F 61% 29.96 in 10.0 mi South 11.5 mph - N/A   Clear
1:55 AM 30.6 °F 20.7 °F 18.0 °F 60% 29.96 in 10.0 mi South 12.7 mph - N/A   Clear
2:15 AM 30.7 °F 21.4 °F 18.1 °F 60% 29.96 in 10.0 mi South 11.5 mph - N/A   Clear
2:35 AM 31.1 °F 21.9 °F 18.1 °F 59% 29.96 in 10.0 mi SSE 11.5 mph - N/A   Clear
3:15 AM 31.1 °F 21.4 °F 18.3 °F 59% 29.96 in 10.0 mi SSE 12.7 mph - N/A   Clear
3:35 AM 30.9 °F 21.2 °F 18.3 °F 60% 29.96 in 10.0 mi South 12.7 mph - N/A   Clear
3:55 AM 30.7 °F 21.4 °F 18.1 °F 60% 29.95 in 10.0 mi South 11.5 mph - N/A   Clear
4:15 AM 31.1 °F 21.4 °F 17.8 °F 58% 29.95 in 10.0 mi South 12.7 mph - N/A   Clear
4:35 AM 30.9 °F 21.2 °F 17.6 °F 58% 29.95 in 10.0 mi South 12.7 mph - N/A   Clear
4:55 AM 30.7 °F 20.9 °F 17.4 °F 58% 29.94 in 10.0 mi South 12.7 mph - N/A   Clear
5:15 AM 30.7 °F 21.4 °F 17.4 °F 58% 29.94 in 10.0 mi South 11.5 mph - N/A   Clear
5:35 AM 30.4 °F 20.5 °F 17.1 °F 58% 29.94 in 10.0 mi South 12.7 mph - N/A   Clear
5:55 AM 30.6 °F 20.7 °F 17.1 °F 57% 29.94 in 10.0 mi South 12.7 mph - N/A   Clear
6:15 AM 30.9 °F 20.2 °F 17.1 °F 57% 29.94 in 10.0 mi South 15.0 mph - N/A   Clear
6:35 AM 31.1 °F 20.9 °F 16.7 °F 55% 29.94 in 10.0 mi South 13.8 mph - N/A   Clear
6:55 AM 31.1 °F 20.5 °F 16.7 °F 55% 29.95 in 10.0 mi South 15.0 mph - N/A   Clear
7:15 AM 31.1 °F 20.5 °F 16.7 °F 55% 29.95 in 10.0 mi South 15.0 mph - N/A   Clear
7:35 AM 30.7 °F 19.6 °F 16.7 °F 56% 29.96 in 10.0 mi South 16.1 mph - N/A   Clear
7:55 AM 31.1 °F 20.5 °F 16.7 °F 55% 29.96 in 10.0 mi South 15.0 mph 18.4 mph N/A   Clear
8:15 AM 31.8 °F 21.8 °F 16.5 °F 53% 29.96 in 10.0 mi South 13.8 mph - N/A   Clear
8:35 AM 32.2 °F 21.4 °F 16.7 °F 53% 29.96 in 10.0 mi South 16.1 mph - N/A   Clear
8:55 AM 34.0 °F 23.4 °F 16.9 °F 50% 29.97 in 10.0 mi South 17.3 mph - N/A   Clear
9:15 AM 35.8 °F 25.7 °F 16.7 °F 46% 29.97 in 10.0 mi South 17.3 mph - N/A   Clear
9:35 AM 37.8 °F 27.7 °F 16.5 °F 42% 29.97 in 10.0 mi South 19.6 mph 27.6 mph N/A   Clear
9:55 AM 39.6 °F 29.0 °F 16.5 °F 39% 29.97 in 10.0 mi South 24.2 mph 31.1 mph N/A   Clear
10:15 AM 41.0 °F 31.9 °F 16.0 °F 36% 29.97 in 10.0 mi South 19.6 mph - N/A   Clear
10:35 AM 42.8 °F 33.5 °F 16.5 °F 35% 29.97 in 10.0 mi South 23.0 mph 26.5 mph N/A   Clear
10:55 AM 44.2 °F 35.7 °F 16.5 °F 33% 29.97 in 10.0 mi South 21.9 mph 28.8 mph N/A   Clear
11:15 AM 46.2 °F 38.1 °F 17.1 °F 31% 29.96 in 10.0 mi South 23.0 mph 29.9 mph N/A   Clear
11:35 AM 47.1 °F - 16.9 °F 30% 29.96 in 10.0 mi South 25.3 mph 34.5 mph N/A   Clear
11:55 AM 49.1 °F - 17.4 °F 28% 29.95 in 10.0 mi South 23.0 mph 33.4 mph N/A   Clear
12:15 PM 50.9 °F - 17.1 °F 26% 29.95 in 10.0 mi SSW 27.6 mph 38.0 mph N/A   Clear
12:35 PM 51.3 °F - 17.4 °F 26% 29.94 in 10.0 mi South 24.2 mph 33.4 mph N/A   Clear
12:55 PM 52.2 °F - 18.0 °F 26% 29.93 in 10.0 mi South 26.5 mph 33.4 mph N/A   Clear
1:15 PM 52.0 °F - 17.4 °F 26% 29.93 in 10.0 mi South 25.3 mph 32.2 mph N/A   Clear
1:35 PM 51.8 °F - 16.9 °F 25% 29.92 in 10.0 mi South 29.9 mph 38.0 mph N/A   Clear
1:55 PM 52.2 °F - 17.2 °F 25% 29.91 in 10.0 mi South 25.3 mph 34.5 mph N/A   Clear
2:15 PM 52.3 °F - 16.3 °F 24% 29.91 in 10.0 mi South 26.5 mph 35.7 mph N/A   Clear
2:35 PM 52.7 °F - 16.5 °F 24% 29.90 in 10.0 mi South 27.6 mph 33.4 mph N/A   Clear
2:55 PM 52.7 °F - 15.8 °F 23% 29.90 in 10.0 mi South 26.5 mph 35.7 mph N/A   Clear
3:15 PM 53.2 °F - 15.8 °F 23% 29.91 in 10.0 mi South 25.3 mph 31.1 mph N/A   Clear
3:35 PM 53.2 °F - 15.4 °F 22% 29.90 in 10.0 mi South 25.3 mph 34.5 mph N/A   Clear
3:55 PM 53.1 °F - 15.3 °F 22% 29.91 in 10.0 mi South 24.2 mph 33.4 mph N/A   Clear
4:15 PM 52.2 °F - 15.4 °F 23% 29.91 in 10.0 mi South 23.0 mph 29.9 mph N/A   Clear
4:35 PM 51.1 °F - 14.9 °F 24% 29.90 in 10.0 mi South 19.6 mph 28.8 mph N/A   Clear
4:55 PM 49.8 °F - 15.1 °F 25% 29.89 in 10.0 mi South 19.6 mph 26.5 mph N/A   Clear
5:15 PM 48.9 °F - 14.9 °F 26% 29.90 in 10.0 mi South 20.7 mph 26.5 mph N/A   Clear
5:35 PM 48.6 °F - 14.9 °F 26% 29.90 in 10.0 mi South 21.9 mph 26.5 mph N/A   Clear
5:55 PM 48.2 °F - 14.9 °F 26% 29.91 in 10.0 mi South 18.4 mph 23.0 mph N/A   Clear
6:55 PM 46.6 °F - 14.9 °F 28% 29.93 in 10.0 mi South 19.6 mph 25.3 mph N/A   Clear
7:15 PM 46.0 °F 38.5 °F 14.7 °F 28% 29.93 in 10.0 mi South 19.6 mph - N/A   Clear
7:35 PM 44.6 °F 37.8 °F 14.7 °F 30% 29.93 in 10.0 mi South 15.0 mph - N/A   Clear
7:55 PM 43.9 °F 35.9 °F 14.5 °F 31% 29.93 in 10.0 mi South 18.4 mph - N/A   Clear
8:15 PM 43.3 °F 35.8 °F 14.7 °F 32% 29.94 in 10.0 mi South 16.1 mph - N/A   Clear
8:35 PM 42.4 °F 33.8 °F 14.7 °F 33% 29.95 in 10.0 mi South 19.6 mph - N/A   Clear
8:55 PM 41.5 °F 32.6 °F 14.7 °F 34% 29.94 in 10.0 mi South 19.6 mph - N/A   Clear
9:15 PM 41.2 °F 32.1 °F 14.9 °F 34% 29.94 in 10.0 mi South 19.6 mph 25.3 mph N/A   Clear
9:35 PM 40.6 °F 31.2 °F 14.9 °F 35% 29.94 in 10.0 mi South 20.7 mph - N/A   Clear
9:55 PM 39.9 °F 30.8 °F 14.9 °F 36% 29.95 in 10.0 mi South 18.4 mph - N/A   Clear
10:15 PM 39.4 °F 29.8 °F 14.9 °F 37% 29.95 in 10.0 mi South 19.6 mph - N/A   Clear
10:35 PM 38.8 °F 29.4 °F 15.1 °F 38% 29.95 in 10.0 mi South 18.4 mph - N/A   Clear
10:55 PM 38.8 °F 28.8 °F 14.9 °F 38% 29.94 in 10.0 mi South 20.7 mph - N/A   Clear
11:15 PM 38.7 °F 28.0 °F 14.9 °F 38% 29.95 in 10.0 mi South 23.0 mph 28.8 mph N/A   Clear
11:35 PM 38.3 °F 28.4 °F 14.9 °F 39% 29.96 in 10.0 mi South 19.6 mph - N/A   Clear
11:55 PM 37.8 °F 27.7 °F 14.9 °F 39% 29.95 in 10.0 mi South 19.6 mph - N/A   Clear